User: anonymous   Login
Location: *
(32.8667°N, 13.1833°E)
Time: 19:12:48
(UTC+00:00)
Language:

Lacrosse 5 - Orbit

View from above orbital plane
View from above orbital plane
View from above satellite
View from above satellite

Ground track
Ground track

The orbit data is extracted from the following two-line orbital elements,

1 28646U 05016A   19281.79905558 0.00000000  00000-0  00000-0 0    00
2 28646  57.0151 218.6474 0005967  94.3643 265.6356 14.51895201    04
Epoch (UTC): 08 October 2019 19:10:38
Eccentricity: 0.0005967
inclination: 57.0151°
perigee height: 715 km
apogee height: 724 km
right ascension of ascending node: 218.6474°
argument of perigee: 94.3643°
revolutions per day: 14.51895201
mean anomaly at epoch: 265.6356°
orbit number at epoch: 0

The dashed part of the orbit path shows where the satellite is in the earth's shadow,  

DLR